When you browse on this site, cookies collect data to enhance your experience and personalize the content and advertising you see.
Visit our Privacy Policy to learn more. By continuing to use the site, you agree to this use of cookies and data.
  • En España
  • Lista de países
  • Para 7 días
  • Temperatura del agua
  • El tiempo en el mapa
  • Informadores
  • user-avatar
    Iniciar sesión

    Tiempo cada hora Escaldes-Engordany

    Hoy, 4 Junio, Jueves

    Tiempo Temperatura Precipitaciones Viento Presión Humedad
    00:00 +10°C° 0 mm 0 mps 632 mmHg 99%
    01:00 +10°C° 1.1 mm 0 mps 631 mmHg 99%
    02:00 +11°C° 1.1 mm 1 mps 630 mmHg 98%
    03:00 +10°C° 1.1 mm 1 mps 630 mmHg 98%
    04:00 +10°C° 2.5 mm 1 mps 630 mmHg 98%
    05:00 +10°C° 2.5 mm 1 mps 630 mmHg 97%
    06:00 +10°C° 2.5 mm 1 mps 630 mmHg 97%
    07:00 +9°C° 0.7 mm 1 mps 630 mmHg 95%
    08:00 +9°C° 0.7 mm 1 mps 630 mmHg 94%
    09:00 +9°C° 0.7 mm 1 mps 630 mmHg 93%
    10:00 +10°C° 0.4 mm 1 mps 630 mmHg 89%
    11:00 +10°C° 0.4 mm 1 mps 630 mmHg 85%
    12:00 +11°C° 0.4 mm 1 mps 630 mmHg 81%
    13:00 +9°C° 0.7 mm 2 mps 630 mmHg 83%
    14:00 +9°C° 0.7 mm 2 mps 629 mmHg 86%
    15:00 +9°C° 0.7 mm 2 mps 629 mmHg 88%
    16:00 +9°C° 0.4 mm 2 mps 629 mmHg 87%
    17:00 +9°C° 0.4 mm 2 mps 629 mmHg 85%
    18:00 +9°C° 0.4 mm 2 mps 629 mmHg 84%
    19:00 +8°C° 0.1 mm 2 mps 630 mmHg 86%
    20:00 +7°C° 0.1 mm 2 mps 630 mmHg 89%
    21:00 +6°C° 0.1 mm 2 mps 630 mmHg 92%
    22:00 +6°C° 0 mm 2 mps 630 mmHg 92%
    23:00 +5°C° 0 mm 2 mps 631 mmHg 92%

    Mañana, 5 Junio, Viernes

    Tiempo Temperatura Precipitaciones Viento Presión Humedad
    00:00 +5°C° 0 mm 2 mps 631 mmHg 93%
    01:00 +5°C° 0 mm 2 mps 631 mmHg 93%
    02:00 +5°C° 0 mm 2 mps 631 mmHg 92%
    03:00 +5°C° 0 mm 2 mps 631 mmHg 92%
    04:00 +5°C° 0 mm 2 mps 631 mmHg 90%
    05:00 +5°C° 0 mm 2 mps 632 mmHg 88%
    06:00 +6°C° 0 mm 2 mps 632 mmHg 86%
    07:00 +7°C° 0 mm 2 mps 633 mmHg 78%
    08:00 +9°C° 0 mm 2 mps 634 mmHg 70%
    09:00 +12°C° 0 mm 2 mps 635 mmHg 62%
    10:00 +14°C° 0 mm 2 mps 635 mmHg 58%
    11:00 +15°C° 0 mm 2 mps 636 mmHg 53%
    12:00 +17°C° 0 mm 2 mps 637 mmHg 49%
    13:00 +17°C° 0 mm 2 mps 637 mmHg 51%
    14:00 +17°C° 0 mm 2 mps 637 mmHg 53%
    15:00 +17°C° 0 mm 2 mps 636 mmHg 55%
    16:00 +16°C° 0 mm 2 mps 636 mmHg 63%
    17:00 +15°C° 0 mm 2 mps 636 mmHg 71%
    18:00 +13°C° 0 mm 1 mps 635 mmHg 80%
    19:00 +12°C° 0 mm 1 mps 635 mmHg 84%
    20:00 +11°C° 0 mm 1 mps 636 mmHg 88%
    21:00 +9°C° 0 mm 0 mps 636 mmHg 93%
    22:00 +9°C° 0 mm 0 mps 635 mmHg 93%
    23:00 +8°C° 0 mm 0 mps 635 mmHg 94%

    Pasado mañana, 6 Junio, Sábado

    Tiempo Temperatura Precipitaciones Viento Presión Humedad
    00:00 +8°C° 0 mm 0 mps 635 mmHg 95%
    01:00 +8°C° 0 mm 0 mps 635 mmHg 95%
    02:00 +8°C° 0 mm 0 mps 635 mmHg 94%
    03:00 +8°C° 0 mm 0 mps 635 mmHg 94%
    04:00 +9°C° 0 mm 0 mps 635 mmHg 92%
    05:00 +9°C° 0 mm 0 mps 635 mmHg 90%
    06:00 +10°C° 0 mm 0 mps 635 mmHg 88%
    07:00 +13°C° 0 mm 1 mps 636 mmHg 80%
    08:00 +15°C° 0 mm 1 mps 637 mmHg 71%
    09:00 +17°C° 0 mm 2 mps 638 mmHg 63%
    10:00 +17°C° 0.1 mm 2 mps 637 mmHg 65%
    11:00 +17°C° 0.1 mm 2 mps 637 mmHg 66%
    12:00 +17°C° 0.1 mm 2 mps 637 mmHg 68%
    13:00 +16°C° 0.6 mm 2 mps 636 mmHg 73%
    14:00 +15°C° 0.6 mm 2 mps 636 mmHg 79%
    15:00 +15°C° 0.6 mm 2 mps 635 mmHg 84%
    16:00 +14°C° 1.1 mm 1 mps 635 mmHg 86%
    17:00 +14°C° 1.1 mm 1 mps 635 mmHg 88%
    18:00 +13°C° 1.1 mm 0 mps 635 mmHg 90%
    19:00 +13°C° 3 mm 1 mps 635 mmHg 93%
    20:00 +12°C° 3 mm 1 mps 635 mmHg 95%
    21:00 +10°C° 3 mm 2 mps 635 mmHg 97%
    22:00 +9°C° 1.5 mm 2 mps 635 mmHg 97%
    23:00 +10°C° 1.5 mm 1 mps 634 mmHg 96%

    7 Junio, Domingo

    Tiempo Temperatura Precipitaciones Viento Presión Humedad
    00:00 +10°C° 1.5 mm 1 mps 634 mmHg 95%
    01:00 +10°C° 0.3 mm 1 mps 634 mmHg 95%
    02:00 +10°C° 0.3 mm 1 mps 634 mmHg 95%
    03:00 +9°C° 0.3 mm 0 mps 634 mmHg 94%
    04:00 +9°C° 0.5 mm 0 mps 634 mmHg 95%
    05:00 +10°C° 0.5 mm 1 mps 634 mmHg 95%
    06:00 +10°C° 0.5 mm 1 mps 635 mmHg 96%
    07:00 +10°C° 0.8 mm 1 mps 635 mmHg 95%
    08:00 +10°C° 0.8 mm 1 mps 635 mmHg 94%
    09:00 +11°C° 0.8 mm 1 mps 636 mmHg 94%
    10:00 +11°C° 0.6 mm 1 mps 636 mmHg 93%
    11:00 +11°C° 0.6 mm 1 mps 636 mmHg 92%
    12:00 +11°C° 0.6 mm 1 mps 636 mmHg 91%
    13:00 +11°C° 0.8 mm 1 mps 636 mmHg 91%
    14:00 +10°C° 0.8 mm 2 mps 636 mmHg 90%
    15:00 +10°C° 0.8 mm 2 mps 635 mmHg 90%
    16:00 +9°C° 0.5 mm 2 mps 635 mmHg 90%
    17:00 +9°C° 0.5 mm 2 mps 635 mmHg 90%
    18:00 +8°C° 0.5 mm 2 mps 635 mmHg 91%
    19:00 +9°C° 0.4 mm 1 mps 635 mmHg 91%
    20:00 +8°C° 0.4 mm 1 mps 636 mmHg 92%
    21:00 +7°C° 0.4 mm 1 mps 636 mmHg 92%
    22:00 +7°C° 0.1 mm 1 mps 636 mmHg 92%
    23:00 +7°C° 0.1 mm 1 mps 636 mmHg 91%

    8 Junio, Lunes

    Tiempo Temperatura Precipitaciones Viento Presión Humedad
    00:00 +7°C° 0.1 mm 1 mps 636 mmHg 91%
    01:00 +7°C° 0.1 mm 1 mps 636 mmHg 92%
    02:00 +7°C° 0.1 mm 1 mps 636 mmHg 93%
    03:00 +7°C° 0.1 mm 1 mps 635 mmHg 93%
    04:00 +7°C° 0 mm 1 mps 636 mmHg 92%
    05:00 +6°C° 0 mm 2 mps 636 mmHg 90%
    06:00 +5°C° 0 mm 2 mps 636 mmHg 89%
    07:00 +7°C° 0 mm 2 mps 637 mmHg 78%
    08:00 +9°C° 0 mm 2 mps 637 mmHg 66%
    09:00 +12°C° 0 mm 1 mps 638 mmHg 55%
    10:00 +13°C° 0 mm 2 mps 638 mmHg 53%
    11:00 +14°C° 0 mm 2 mps 639 mmHg 50%
    12:00 +15°C° 0 mm 2 mps 639 mmHg 48%
    13:00 +14°C° 0.1 mm 2 mps 638 mmHg 54%
    14:00 +13°C° 0.1 mm 2 mps 638 mmHg 61%
    15:00 +13°C° 0.1 mm 2 mps 638 mmHg 68%
    16:00 +12°C° 0.3 mm 1 mps 637 mmHg 74%
    17:00 +11°C° 0.3 mm 1 mps 637 mmHg 80%
    18:00 +10°C° 0.3 mm 1 mps 637 mmHg 85%
    19:00 +9°C° 0.1 mm 1 mps 637 mmHg 88%
    20:00 +9°C° 0.1 mm 1 mps 638 mmHg 90%
    21:00 +8°C° 0.1 mm 1 mps 638 mmHg 92%
    22:00 +8°C° 0.1 mm 1 mps 638 mmHg 92%
    23:00 +8°C° 0.1 mm 1 mps 638 mmHg 92%

    9 Junio, Martes

    Tiempo Temperatura Precipitaciones Viento Presión Humedad
    00:00 +8°C° 0.1 mm 1 mps 638 mmHg 92%
    01:00 +7°C° 0 mm 1 mps 638 mmHg 93%
    02:00 +6°C° 0 mm 1 mps 637 mmHg 94%
    03:00 +6°C° 0 mm 1 mps 637 mmHg 94%
    04:00 +6°C° 0 mm 1 mps 637 mmHg 92%
    05:00 +7°C° 0 mm 1 mps 638 mmHg 90%
    06:00 +8°C° 0 mm 1 mps 638 mmHg 87%
    07:00 +10°C° 0 mm 1 mps 639 mmHg 77%
    08:00 +12°C° 0 mm 1 mps 640 mmHg 68%
    09:00 +14°C° 0 mm 1 mps 640 mmHg 58%
    10:00 +14°C° 0 mm 1 mps 641 mmHg 56%
    11:00 +15°C° 0 mm 1 mps 641 mmHg 55%
    12:00 +16°C° 0 mm 1 mps 641 mmHg 53%
    13:00 +15°C° 0.2 mm 1 mps 640 mmHg 59%
    14:00 +14°C° 0.2 mm 1 mps 640 mmHg 64%
    15:00 +14°C° 0.2 mm 1 mps 640 mmHg 70%
    16:00 +13°C° 0.4 mm 1 mps 639 mmHg 75%
    17:00 +12°C° 0.4 mm 1 mps 639 mmHg 79%
    18:00 +12°C° 0.4 mm 1 mps 639 mmHg 84%
    19:00 +11°C° 0.1 mm 1 mps 639 mmHg 87%
    20:00 +10°C° 0.1 mm 1 mps 639 mmHg 89%
    21:00 +9°C° 0.1 mm 1 mps 639 mmHg 92%
    22:00 +9°C° 0 mm 1 mps 639 mmHg 92%
    23:00 +9°C° 0 mm 1 mps 639 mmHg 92%
    Mostrar más